Weather History for Belgrade Nikola Tesla, Serbia

Change the Weather History Date:

Saturday, October 13, 2012

  Actual Average Record
Temperature  
Mean Temperature 55 °F -  
Max Temperature 57 °F 57 °F - ()
Min Temperature 53 °F 41 °F - ()
Degree Days  
Heating Degree Days 10    
Growing Degree Days 5 (Base 50)    
Moisture  
Dew Point 55 °F    
Average Humidity 99    
Maximum Humidity 100    
Minimum Humidity 93    
Precipitation  
Precipitation 0.00 in - - ()
Sea Level Pressure  
Sea Level Pressure 29.97 in    
Wind  
Wind Speed 5 mph ()    
Max Wind Speed 12 mph    
Max Gust Speed -    
Visibility 2.3 miles    
Events Rain    
T = Trace of Precipitation, MM = Missing Value Source: Averaged Metar Reports

Daily Weather History Graph

Daily Weather History Graph

Search for Another Location

Airport:

Trip Planner

Search our weather history database for the weather conditions in past years. The results will help you decide how hot, cold, wet, or windy it might be!

Date:

Astronomy

Oct. 13, 2012 Rise Set
Actual Time 6:52 AM CEST 5:57 PM CEST
Civil Twilight 6:22 AM CEST 6:26 PM CEST
Nautical Twilight 5:48 AM CEST 7:00 PM CEST
Astronomical Twilight 5:14 AM CEST 7:34 PM CEST
Moon 4:16 AM CEST (10/13) 4:33 PM CEST (10/13)
Length of Visible Light 12h 04m
Length of Day
11h 05m
Waning Crescent, 6% of the Moon is Illuminated
Oct 13
Waning Crescent
Oct 15
New
Oct 22
First Quarter
Oct 29
Full
Nov 7
Last Quarter

Hourly Weather History & Observations

Time (CEST) Temp. Dew Point Humidity Pressure Visibility Wind Dir Wind Speed Gust Speed Precip Events Conditions
12:00 AM 55.4 °F 55.4 °F 100% 29.89 in 3.1 mi East 5.8 mph - N/A Rain Light Rain
12:30 AM 55.4 °F 55.4 °F 100% 29.89 in 2.5 mi North 3.5 mph - N/A Rain Light Rain
1:00 AM 55.4 °F 55.4 °F 100% 29.89 in 2.2 mi ENE 5.8 mph - N/A Rain Rain
1:30 AM 55.4 °F 55.4 °F 100% 29.89 in 2.5 mi ENE 5.8 mph - N/A Rain Light Rain
2:00 AM 55 °F 55 °F 98% 29.90 in 2 mi ENE 4.5 mph - - Rain Light Rain
2:00 AM 55.4 °F 55.4 °F 100% 29.89 in 2.5 mi ENE 6.9 mph - N/A Rain Light Rain
2:30 AM 55.4 °F 55.4 °F 100% 29.89 in 2.5 mi NE 4.6 mph - N/A   Light Drizzle
3:00 AM 53.6 °F 53.6 °F 100% 29.89 in 2.5 mi North 3.5 mph - N/A   Light Drizzle
3:30 AM 53.6 °F 53.6 °F 100% 29.92 in 2.5 mi North 5.8 mph - N/A   Light Drizzle
4:00 AM 53.6 °F 53.6 °F 100% 29.92 in 2.5 mi NNW 6.9 mph - N/A   Light Drizzle
5:00 AM 54 °F 54 °F 100% 29.95 in 2 mi North 4.5 mph - - Rain Light Drizzle
5:00 AM 53.6 °F 53.6 °F 100% 29.95 in 2.5 mi NNW 5.8 mph - N/A   Light Drizzle
5:30 AM 53.6 °F 53.6 °F 100% 29.95 in 2.5 mi North 3.5 mph - N/A   Light Drizzle
6:00 AM 53.6 °F 53.6 °F 100% 29.95 in 2.2 mi WNW 5.8 mph - N/A   Overcast
6:30 AM 53.6 °F 53.6 °F 100% 29.98 in 2.2 mi NW 6.9 mph - N/A   Overcast
7:00 AM 53.6 °F 53.6 °F 100% 29.98 in 1.2 mi NNW 8.1 mph - N/A   Light Drizzle
7:30 AM 53.6 °F 53.6 °F 100% 29.98 in 1.2 mi NNW 6.9 mph - N/A   Light Drizzle
8:00 AM 55 °F 55 °F 98% 30.00 in 2 mi NW 6.7 mph - - Rain Light Drizzle
8:00 AM 55.4 °F 55.4 °F 100% 30.01 in 1.9 mi NW 6.9 mph - N/A   Overcast
8:30 AM 55.4 °F 55.4 °F 100% 30.01 in 2.5 mi NW 6.9 mph - N/A   Overcast
9:00 AM 55.4 °F 55.4 °F 100% 30.01 in 1.9 mi NW 6.9 mph - N/A   Overcast
9:30 AM 55.4 °F 55.4 °F 100% 30.01 in 0.6 mi West 6.9 mph - N/A   Light Drizzle
10:00 AM 53.6 °F 53.6 °F 100% 30.04 in 0.6 mi West 9.2 mph - N/A   Drizzle
10:30 AM 53.6 °F 53.6 °F 100% 30.04 in 0.6 mi West 11.5 mph - N/A   Drizzle
11:00 AM 54 °F 54 °F 99% 30.04 in 1 mi West 6.7 mph - - Rain Light Drizzle
11:00 AM 53.6 °F 53.6 °F 100% 30.04 in 0.9 mi West 9.2 mph - N/A   Light Drizzle
12:00 PM 55.4 °F 55.4 °F 100% 30.04 in 1.2 mi West 6.9 mph - N/A   Light Drizzle
12:30 PM 55.4 °F 55.4 °F 100% 30.04 in 1.2 mi West 8.1 mph - N/A   Light Drizzle
1:00 PM 55.4 °F 55.4 °F 100% 30.04 in 1.9 mi West 8.1 mph - N/A   Overcast
1:30 PM 55.4 °F 55.4 °F 100% 30.04 in 1.9 mi West 8.1 mph - N/A   Overcast
2:00 PM 56 °F 55 °F 96% 30.03 in 2 mi West 4.5 mph - -   Mist
2:00 PM 55.4 °F 55.4 °F 100% 30.01 in 2.5 mi West 4.6 mph - N/A   Overcast
2:30 PM 55.4 °F 55.4 °F 100% 30.01 in 2.5 mi WSW 5.8 mph - N/A   Overcast
3:00 PM 57.2 °F 55.4 °F 94% 30.01 in 3.1 mi Variable 2.3 mph - N/A   Overcast
3:30 PM 57.2 °F 55.4 °F 94% 30.01 in 1.9 mi NE 3.5 mph - N/A   Overcast
4:00 PM 57.2 °F 55.4 °F 94% 30.01 in 2.5 mi Variable 2.3 mph - N/A   Overcast
4:30 PM 57.2 °F 55.4 °F 94% 30.01 in 3.7 mi South 5.8 mph - N/A   Overcast
5:00 PM 57 °F 56 °F 93% 30.00 in 4 mi South 4.5 mph - -   Mist
5:00 PM 57.2 °F 55.4 °F 94% 29.98 in 3.7 mi South 5.8 mph - N/A   Overcast
5:30 PM 57.2 °F 55.4 °F 94% 29.98 in 3.7 mi South 4.6 mph - N/A   Overcast
6:00 PM 57.2 °F 55.4 °F 94% 29.98 in 3.1 mi SSE 4.6 mph - N/A   Overcast
6:30 PM 55.4 °F 55.4 °F 100% 29.98 in 3.7 mi ESE 2.3 mph - N/A   Overcast
7:00 PM 55.4 °F 55.4 °F 100% 29.98 in 3.7 mi East 2.3 mph - N/A   Overcast
7:30 PM 55.4 °F 55.4 °F 100% 29.98 in 3.1 mi ENE 2.3 mph - N/A   Overcast
8:00 PM 56 °F 55 °F 97% 29.96 in 2 mi ENE 2.2 mph - -   Mist
8:00 PM 55.4 °F 55.4 °F 100% 29.95 in 2.5 mi ENE 3.5 mph - N/A   Mostly Cloudy
8:30 PM 55.4 °F 55.4 °F 100% 29.95 in 2.2 mi NE 3.5 mph - N/A   Mostly Cloudy
9:00 PM 55.4 °F 55.4 °F 100% 29.95 in 1.9 mi East 3.5 mph - N/A   Scattered Clouds
9:30 PM 55.4 °F 55.4 °F 100% 29.95 in 2.5 mi East 4.6 mph - N/A   Scattered Clouds
10:00 PM 53.6 °F 53.6 °F 100% 29.92 in 3.1 mi ESE 5.8 mph - N/A   Scattered Clouds
10:30 PM 53.6 °F 53.6 °F 100% 29.92 in 3.1 mi East 5.8 mph - N/A   Scattered Clouds
11:00 PM 53.6 °F 53.6 °F 100% 29.92 in 3.1 mi East 5.8 mph - N/A   Scattered Clouds
11:30 PM 53.6 °F 53.6 °F 100% 29.92 in 2.5 mi East 5.8 mph - N/A   Scattered Clouds